Tracking 19485 objects as of 21-Jan-2019
HD Live streaming from Space Station
objects crossing your sky now

COSMOS 2271

Track COSMOS 2271 now!
10-day predictions
COSMOS 2271 is classified as:


NORAD ID: 23002
Int'l Code: 1994-011D
Perigee: 1,410.5 km
Apogee: 1,421.2 km
Inclination: 82.6 °
Period: 114.0 minutes
Semi major axis: 7786 km
RCS: 1.0445 m2 (large)
Launch date: February 12, 1994
Source: Commonwealth of Independent States (former USSR) (CIS)
Launch site: PLESETSK MISSILE AND SPACE COMPLEX (PKMTR)
aabbcc
Your satellite tracking list
Your tracking list is empty




NASA's NSSDC Master Catalog

Two Line Element Set (TLE):
1 23002U 94011D   19020.87744881 +.00000028 +00000-0 +94564-4 0  9993
2 23002 082.5629 229.4995 0006874 208.0735 151.9987 12.63446404149975
Source of the keplerian elements: AFSPC